Weather History for KW29 - August, 2013

Change the Weather History Date:

Friday, August 30, 2013

  Actual Average (KESN) Record (KESN)
Temperature  
Mean Temperature 76 °F -  
Max Temperature 82 °F 88 °F 95 °F (1948)
Min Temperature 69 °F 63 °F 48 °F (1968)
Cooling Degree Days 10    
Growing Degree Days 26 (Base 50)    
Moisture  
Dew Point 67 °F    
Average Humidity 74    
Maximum Humidity 88    
Minimum Humidity 61    
Precipitation  
Precipitation 0.00 in - - ()
Sea Level Pressure  
Sea Level Pressure 29.99 in    
Wind  
Wind Speed 6 mph (South)    
Max Wind Speed 14 mph    
Max Gust Speed 17 mph    
Visibility 10 miles    
Events      
Averages and records for this station are not official NWS values.
T = Trace of Precipitation, MM = Missing Value Source: NWS Daily Summary

Daily Weather History Graph

Daily Weather History Graph

Search for Another Location

Airport or City:

Trip Planner

Search our weather history database for the weather conditions in past years. The results will help you decide how hot, cold, wet, or windy it might be!

Date:

Astronomy

Aug. 30, 2013 Rise Set
Actual Time 6:32 AM EDT 7:38 PM EDT
Civil Twilight 6:05 AM EDT 8:05 PM EDT
Nautical Twilight 5:32 AM EDT 8:38 PM EDT
Astronomical Twilight 4:58 AM EDT 9:12 PM EDT
Moon 1:10 AM EDT (8/30) 3:50 PM EDT (8/30)
Length of Visible Light 14h 00m
Length of Day
13h 05m
Waning Crescent, 29% of the Moon is Illuminated
Aug 30
Waning Crescent
Sep 5
New
Sep 12
First Quarter
Sep 19
Full
Sep 26
Last Quarter

Hourly Weather History & Observations

Time (EDT) Temp. Heat Index Dew Point Humidity Pressure Visibility Wind Dir Wind Speed Gust Speed Precip Events Conditions
12:13 AM 71.6 °F - 64.4 °F 78% 30.03 in 10.0 mi SE 4.6 mph - N/A   Scattered Clouds
12:33 AM 69.8 °F - 64.4 °F 83% 30.03 in 10.0 mi SE 4.6 mph - N/A   Scattered Clouds
12:53 AM 69.8 °F - 64.4 °F 83% 30.02 in 10.0 mi SE 9.2 mph - N/A   Clear
1:13 AM 69.8 °F - 64.4 °F 83% 30.02 in 10.0 mi SE 6.9 mph - N/A   Clear
1:33 AM 69.8 °F - 64.4 °F 83% 30.02 in 10.0 mi ESE 5.8 mph - N/A   Clear
1:53 AM 69.8 °F - 64.4 °F 83% 30.02 in 10.0 mi South 3.5 mph - N/A   Clear
2:13 AM 69.8 °F - 64.4 °F 83% 30.03 in 10.0 mi Calm Calm - N/A   Clear
2:33 AM 69.8 °F - 66.2 °F 88% 30.03 in 10.0 mi Calm Calm - N/A   Mostly Cloudy
2:53 AM 69.8 °F - 66.2 °F 88% 30.03 in 10.0 mi South 3.5 mph - N/A   Scattered Clouds
3:13 AM 69.8 °F - 64.4 °F 83% 30.02 in 10.0 mi South 3.5 mph - N/A   Clear
3:33 AM 69.8 °F - 64.4 °F 83% 30.02 in 10.0 mi Calm Calm - N/A   Scattered Clouds
3:53 AM 69.8 °F - 64.4 °F 83% 30.03 in 10.0 mi Calm Calm - N/A   Scattered Clouds
4:13 AM 69.8 °F - 66.2 °F 88% 30.03 in 10.0 mi Calm Calm - N/A   Clear
4:33 AM 69.8 °F - 64.4 °F 83% 30.03 in 10.0 mi Calm Calm - N/A   Mostly Cloudy
4:53 AM 71.6 °F - 64.4 °F 78% 30.03 in 10.0 mi Calm Calm - N/A   Overcast
5:13 AM 71.6 °F - 64.4 °F 78% 30.03 in 10.0 mi Calm Calm - N/A   Overcast
5:33 AM 71.6 °F - 64.4 °F 78% 30.03 in 10.0 mi Calm Calm - N/A   Overcast
5:53 AM 69.8 °F - 66.2 °F 88% 30.03 in 10.0 mi SW 3.5 mph - N/A   Overcast
6:14 AM 71.6 °F - 66.2 °F 83% 30.04 in 10.0 mi SSW 3.5 mph - N/A   Overcast
6:34 AM 69.8 °F - 66.2 °F 88% 30.03 in 10.0 mi Calm Calm - N/A   Scattered Clouds
6:54 AM 69.8 °F - 66.2 °F 88% 30.03 in 10.0 mi SSW 3.5 mph - N/A   Clear
7:14 AM 69.8 °F - 66.2 °F 88% 30.03 in 10.0 mi Calm Calm - N/A   Clear
7:34 AM 71.6 °F - 64.4 °F 78% 30.04 in 10.0 mi SW 3.5 mph - N/A   Clear
7:54 AM 71.6 °F - 66.2 °F 83% 30.04 in 10.0 mi WSW 3.5 mph - N/A   Clear
8:14 AM 73.4 °F - 68.0 °F 83% 30.04 in 10.0 mi WSW 4.6 mph - N/A   Clear
8:34 AM 73.4 °F - 68.0 °F 83% 30.05 in 10.0 mi WSW 4.6 mph - N/A   Clear
8:54 AM 73.4 °F - 68.0 °F 83% 30.05 in 10.0 mi WSW 8.1 mph - N/A   Clear
9:14 AM 73.4 °F - 68.0 °F 83% 30.05 in 10.0 mi WSW 5.8 mph - N/A   Clear
9:34 AM 75.2 °F - 68.0 °F 78% 30.05 in 10.0 mi WSW 5.8 mph - N/A   Clear
9:54 AM 77.0 °F - 66.2 °F 69% 30.05 in 10.0 mi WSW 5.8 mph - N/A   Clear
10:14 AM 77.0 °F - 66.2 °F 69% 30.04 in 10.0 mi SW 6.9 mph - N/A   Clear
10:34 AM 77.0 °F - 64.4 °F 65% 30.04 in 10.0 mi SW 6.9 mph - N/A   Clear
10:54 AM 77.0 °F - 64.4 °F 65% 30.03 in 10.0 mi SSW 6.9 mph - N/A   Clear
11:14 AM 78.8 °F - 64.4 °F 61% 30.03 in 10.0 mi SSW 8.1 mph - N/A   Clear
11:34 AM 78.8 °F - 64.4 °F 61% 30.02 in 10.0 mi SW 8.1 mph - N/A   Clear
11:54 AM 78.8 °F - 64.4 °F 61% 30.02 in 10.0 mi SSW 8.1 mph - N/A   Clear
12:14 PM 78.8 °F - 64.4 °F 61% 30.01 in 10.0 mi South 9.2 mph - N/A   Clear
12:34 PM 78.8 °F - 64.4 °F 61% 30.01 in 10.0 mi South 6.9 mph - N/A   Clear
12:54 PM 80.6 °F 83.2 °F 68.0 °F 65% 30.00 in 10.0 mi SSE 10.4 mph - N/A   Mostly Cloudy
1:14 PM 80.6 °F 83.2 °F 68.0 °F 65% 29.99 in 10.0 mi SSE 10.4 mph - N/A   Scattered Clouds
1:34 PM 80.6 °F 83.2 °F 68.0 °F 65% 30.00 in 10.0 mi SSE 10.4 mph - N/A   Clear
1:54 PM 80.6 °F 83.2 °F 68.0 °F 65% 29.99 in 10.0 mi SSE 11.5 mph - N/A   Clear
2:14 PM 80.6 °F 83.2 °F 68.0 °F 65% 29.98 in 10.0 mi SSE 13.8 mph - N/A   Clear
2:34 PM 80.6 °F 83.2 °F 68.0 °F 65% 29.97 in 10.0 mi SSE 10.4 mph 16.1 mph N/A   Clear
2:54 PM 82.4 °F 85.4 °F 68.0 °F 62% 29.97 in 10.0 mi SSE 12.7 mph - N/A   Clear
3:15 PM 82.4 °F 85.4 °F 68.0 °F 62% 29.96 in 10.0 mi SSE 11.5 mph 17.3 mph N/A   Clear
3:35 PM 82.4 °F 85.4 °F 68.0 °F 62% 29.96 in 10.0 mi South 12.7 mph - N/A   Clear
3:55 PM 80.6 °F 83.2 °F 68.0 °F 65% 29.95 in 10.0 mi South 8.1 mph - N/A   Clear
4:15 PM 82.4 °F 85.4 °F 68.0 °F 62% 29.95 in 10.0 mi South 11.5 mph - N/A   Clear
4:35 PM 82.4 °F 85.4 °F 68.0 °F 62% 29.94 in 10.0 mi South 10.4 mph - N/A   Clear
4:55 PM 82.4 °F 85.4 °F 68.0 °F 62% 29.94 in 10.0 mi South 9.2 mph - N/A   Clear
5:15 PM 82.4 °F 85.4 °F 68.0 °F 62% 29.94 in 10.0 mi SSE 10.4 mph - N/A   Clear
5:35 PM 82.4 °F 85.4 °F 68.0 °F 62% 29.93 in 10.0 mi SSE 9.2 mph - N/A   Clear
5:55 PM 80.6 °F 83.2 °F 68.0 °F 65% 29.93 in 10.0 mi South 10.4 mph - N/A   Clear
6:15 PM 80.6 °F 83.2 °F 68.0 °F 65% 29.93 in 10.0 mi South 10.4 mph - N/A   Clear
6:35 PM 80.6 °F 83.2 °F 68.0 °F 65% 29.92 in 10.0 mi South 9.2 mph - N/A   Clear
6:55 PM 80.6 °F 83.2 °F 68.0 °F 65% 29.91 in 10.0 mi SSE 8.1 mph - N/A   Clear
7:15 PM 78.8 °F - 68.0 °F 69% 29.91 in 10.0 mi SSE 8.1 mph - N/A   Clear
7:35 PM 78.8 °F - 68.0 °F 69% 29.91 in 10.0 mi South 8.1 mph - N/A   Clear
7:55 PM 78.8 °F - 69.8 °F 74% 29.91 in 10.0 mi South 9.2 mph - N/A   Clear
8:15 PM 77.0 °F - 69.8 °F 78% 29.91 in 10.0 mi South 9.2 mph - N/A   Clear
8:35 PM 77.0 °F - 69.8 °F 78% 29.91 in 10.0 mi South 9.2 mph - N/A   Clear
8:55 PM 77.0 °F - 68.0 °F 74% 29.92 in 10.0 mi SSE 10.4 mph - N/A   Clear
9:15 PM 77.0 °F - 69.8 °F 78% 29.92 in 10.0 mi South 8.1 mph - N/A   Clear
9:35 PM 77.0 °F - 69.8 °F 78% 29.92 in 10.0 mi South 8.1 mph - N/A   Clear
9:55 PM 77.0 °F - 69.8 °F 78% 29.92 in 10.0 mi South 10.4 mph - N/A   Clear
10:15 PM 77.0 °F - 69.8 °F 78% 29.93 in 10.0 mi South 9.2 mph - N/A   Clear
10:35 PM 77.0 °F - 69.8 °F 78% 29.93 in 10.0 mi South 8.1 mph - N/A   Clear
10:55 PM 77.0 °F - 69.8 °F 78% 29.93 in 10.0 mi South 8.1 mph - N/A   Clear
11:15 PM 75.2 °F - 69.8 °F 83% 29.93 in 10.0 mi South 9.2 mph - N/A   Clear
11:35 PM 75.2 °F - 69.8 °F 83% 29.93 in 10.0 mi South 9.2 mph - N/A   Clear
11:56 PM 75.2 °F - 69.8 °F 83% 29.93 in 10.0 mi South 9.2 mph - N/A   Clear